Weather observations for the past three days for
Wellsboro Johnston Airport
Imperial (Metric)
Date Time (edt) Wind (mph) Vis. (mi.) Weather Sky Cond. Temperature (ºF) Relative Humidity Wind Chill (°F) Heat Index (°F) Pressure Precipitation (in)
Air Dwpt 6 hour altimeter (in) sea level (mb) 1 hr 3 hr 6 hr
Max. Min.
15 10:55 Vrbl 3 10.00 Mostly Cloudy BKN039 BKN046 64.4 50 60% 30.13 0.0
15 10:35 Vrbl 3 10.00 Partly Cloudy SCT037 SCT043 66.2 51.8 60% 30.13 0.0
15 10:15 Vrbl 6 10.00 Fair CLR 66.2 51.8 60% 30.13 0.0
15 09:55 NE 6 10.00 Fair CLR 62.6 51.8 68% 30.12 0.0
15 09:35 Vrbl 5 10.00 Fair CLR 62.6 53.6 73% 30.11 0.0
15 09:15 N 7 10.00 A Few Clouds FEW018 62.6 55.4 77% 30.1 0.0
15 08:55 N 5 10.00 A Few Clouds FEW018 60.8 55.4 83% 30.09 0.0
15 08:35 NE 6 10.00 Mostly Cloudy BKN015 59 55.4 88% 30.1 0.0
15 08:15 N 7 10.00 Mostly Cloudy BKN014 57.2 55.4 94% 30.09 0.0
15 07:55 N 10 10.00 A Few Clouds FEW014 57.2 53.6 88% 30.09 0.0
15 07:35 N 7 10.00 Fair CLR 57.2 53.6 88% 30.1 0.0
15 07:15 NW 12 10.00 Fair CLR 57.2 53.6 88% 30.09 0.0
15 06:55 NW 10 10.00 Fair CLR 55.4 53.6 94% 30.08 0.0
15 06:35 NW 12 10.00 Fair CLR 53.6 53.6 100% 30.07 0.0
15 06:15 NW 13 10.00 Fair CLR 53.6 53.6 100% 30.07 0.0
15 05:55 W 8 10.00 Fair CLR 53.6 53.6 100% 30.06 0.0
15 05:35 NW 7 G 13 10.00 Fair CLR 53.6 51.8 94% 30.05 0.0
15 05:15 Calm 10.00 Fair CLR 53.6 51.8 94% 30.04 0.0
15 04:55 Calm 10.00 Fair CLR 53.6 51.8 94% 30.04 0.0
15 04:35 N 10 10.00 Fair CLR 55.4 51.8 88% 30.03 0.0
15 04:15 N 8 10.00 Fair CLR 53.6 51.8 94% 30.03 0.0
15 03:55 NW 7 10.00 Fair CLR 51.8 51.8 100% 30.03 0.0
15 03:35 NW 3 10.00 Fair CLR 53.6 51.8 94% 30.03 0.0
15 03:15 N 7 10.00 Fair CLR 55.4 50 82% 30.02 0.0
15 02:55 N 3 10.00 Fair CLR 55.4 50 82% 30.02 0.0
15 02:35 N 10 10.00 Fair CLR 57.2 50 77% 30.02 0.0
15 02:15 N 10 10.00 Fair CLR 57.2 50 77% 30.01 0.0
15 01:55 N 7 10.00 Partly Cloudy SCT044 SCT050 55.4 50 82% 30.02 0.0
15 01:35 N 7 10.00 Mostly Cloudy BKN046 59 50 72% 30.01 0.0
15 01:15 N 7 10.00 Mostly Cloudy SCT043 BKN048 57.2 50 77% 30.01 0.0
15 00:55 N 7 10.00 A Few Clouds FEW043 FEW049 57.2 50 77% 30.01 0.0
15 00:35 N 6 10.00 Fair CLR 59 50 72% 30 0.0
15 00:15 N 8 10.00 Fair CLR 59 51.8 77% 30 0.0
14 23:55 N 8 10.00 Fair CLR 59 51.8 77% 30 0.0
14 23:35 N 7 10.00 Fair CLR 60.8 51.8 72% 29.99 0.0
14 23:15 N 8 10.00 Fair CLR 60.8 51.8 72% 29.99 0.0
14 22:55 N 7 10.00 Fair CLR 60.8 51.8 72% 29.99 0.0
14 22:35 N 9 10.00 Fair CLR 60.8 53.6 77% 29.98 0.0
14 22:15 N 13 10.00 Fair CLR 62.6 51.8 68% 29.98 0.0
14 21:55 N 9 G 16 10.00 Fair CLR 64.4 51.8 64% 29.97 0.0
14 21:35 N 13 G 21 10.00 Fair CLR 64.4 51.8 64% 29.96 0.0
14 21:15 N 14 10.00 Fair CLR 66.2 53.6 64% 29.96 0.0
14 20:55 N 14 10.00 Fair CLR 66.2 53.6 64% 29.95 0.0
14 20:35 N 14 10.00 Mostly Cloudy BKN080 68 53.6 60% 29.95 0.0
14 20:15 N 8 G 16 10.00 Partly Cloudy SCT080 69.8 51.8 53% 29.94 0.0
14 19:55 NW 7 G 15 10.00 Fair CLR 69.8 57.2 64% 29.93 0.0
14 19:35 W 5 10.00 Fair CLR 69.8 62.6 78% 29.92 0.0
14 19:15 W 3 10.00 Fair CLR 69.8 62.6 78% 29.92 0.0
14 18:55 SW 7 10.00 Fair CLR 69.8 62.6 78% 29.92 0.0
14 18:35 SW 9 10.00 Fair CLR 71.6 62.6 73% 29.92 0.0
14 18:15 S 7 10.00 A Few Clouds FEW065 FEW095 71.6 62.6 73% 29.91 0.0
14 17:55 SW 8 10.00 Fair CLR 71.6 60.8 69% 29.91 0.0
14 17:35 S 9 10.00 Fair CLR 71.6 60.8 69% 29.91 0.0
14 17:15 S 8 10.00 Fair CLR 71.6 60.8 69% 29.91 0.0
14 16:55 S 6 G 13 10.00 Fair CLR 71.6 60.8 69% 29.91 0.0
14 16:35 S 7 G 13 10.00 Fair CLR 71.6 62.6 73% 29.91 0.0
14 16:15 SW 8 10.00 Fair CLR 69.8 62.6 78% 29.92 0.0
14 15:55 S 10 G 16 10.00 Fair CLR 69.8 62.6 78% 29.93 0.0
14 15:35 SW 13 10.00 Fair CLR 69.8 62.6 78% 29.93 0.0
14 15:15 SW 8 10.00 Thunderstorm in Vicinity CLR 68 64.4 88% 29.94 0.0
14 14:55 S 3 10.00 Partly Cloudy FEW060 FEW080 SCT100 66.2 64.4 94% 29.92 0.0
14 14:35 SW 5 G 13 10.00 Overcast BKN055 OVC095 66.2 64.4 94% 29.93 0.0
14 14:15 S 9 10.00 Light Rain BKN050 OVC070 68 64.4 88% 29.96 0.0
14 13:55 S 6 10.00 Thunderstorm in Vicinity SCT049 SCT065 BKN100 68 62.6 83% 29.93 0.0
14 13:35 S 8 10.00 A Few Clouds FEW070 FEW100 69.8 60.8 73% 29.94 0.0
14 13:15 SE 3 10.00 A Few Clouds FEW044 FEW100 71.6 59 65% 29.94 0.0
14 12:55 E 8 10.00 Partly Cloudy FEW044 FEW095 SCT120 71.6 59 65% 29.93 0.0
14 12:35 Vrbl 5 10.00 A Few Clouds FEW042 FEW110 73.4 59 61% 29.94 0.0
14 12:15 N 3 10.00 A Few Clouds FEW031 71.6 60.8 69% 29.94 0.0
14 11:55 Calm 10.00 A Few Clouds FEW031 FEW070 FEW080 73.4 60.8 65% 29.95 0.0
14 11:35 NE 5 10.00 A Few Clouds FEW027 FEW070 FEW080 71.6 62.6 73% 29.94 0.0
14 11:15 Calm 10.00 Fair CLR 71.6 60.8 69% 29.95 0.0
14 10:55 N 7 10.00 Partly Cloudy FEW025 SCT085 71.6 62.6 73% 29.94 0.0
14 10:35 N 8 10.00 Mostly Cloudy SCT025 BKN085 71.6 62.6 73% 29.95 0.0
14 10:15 Vrbl 5 10.00 Mostly Cloudy SCT028 BKN085 71.6 62.6 73% 29.94 0.0
14 09:55 N 3 10.00 Mostly Cloudy SCT028 BKN085 69.8 62.6 78% 29.94 0.0
14 09:35 Calm 10.00 Mostly Cloudy BKN085 69.8 60.8 73% 29.94 0.0
14 09:15 Calm 10.00 Mostly Cloudy BKN090 69.8 60.8 73% 29.94 0.0
14 08:55 W 5 10.00 Mostly Cloudy SCT090 BKN120 68 59 73% 29.94 0.0
14 08:35 Calm 10.00 A Few Clouds FEW120 68 59 73% 29.94 0.0
14 08:15 Calm 10.00 Fair CLR 66.2 59 78% 29.94 0.0
14 07:55 S 3 10.00 Fair CLR 66.2 59 78% 29.93 0.0
14 07:35 SW 3 10.00 Fair CLR 66.2 59 78% 29.93 0.0
14 07:15 S 6 10.00 A Few Clouds FEW120 66.2 57.2 73% 29.93 0.0
14 06:55 S 6 10.00 A Few Clouds FEW120 64.4 57.2 78% 29.91 0.0
14 06:35 S 7 10.00 Fair CLR 64.4 57.2 78% 29.91 0.0
14 06:15 S 6 10.00 Partly Cloudy FEW090 SCT120 64.4 55.4 73% 29.9 0.0
14 05:55 S 6 10.00 Mostly Cloudy FEW042 SCT070 BKN090 64.4 57.2 78% 29.9 0.0
14 05:35 S 8 8.00 Light Drizzle FEW050 FEW065 OVC075 64.4 55.4 73% 29.9 0.0
14 05:15 S 7 10.00 Overcast FEW060 OVC080 64.4 55.4 73% 29.89 0.0
14 04:55 S 7 10.00 Overcast BKN080 OVC085 66.2 55.4 68% 29.89 0.0
14 04:35 SW 8 10.00 Mostly Cloudy BKN080 BKN090 BKN110 66.2 55.4 68% 29.89 0.0
14 04:15 SW 7 10.00 Overcast OVC080 66.2 55.4 68% 29.9 0.0
14 03:55 SW 8 10.00 Mostly Cloudy SCT080 BKN120 66.2 55.4 68% 29.9 0.0
14 03:35 SW 7 10.00 Mostly Cloudy BKN120 66.2 53.6 64% 29.9 0.0
14 03:15 Calm 10.00 Fair CLR 66.2 53.6 64% 29.9 0.0
14 02:55 SW 5 10.00 A Few Clouds FEW060 68 53.6 60% 29.91 0.0
14 02:35 S 5 10.00 Fair CLR 68 53.6 60% 29.91 0.0
14 02:15 SW 5 10.00 Fair CLR 68 53.6 60% 29.91 0.0
14 01:55 SW 6 10.00 A Few Clouds FEW120 69.8 53.6 57% 29.91 0.0
14 01:35 SW 7 10.00 Mostly Cloudy FEW065 FEW075 BKN110 69.8 53.6 57% 29.92 0.0
14 01:15 SW 7 10.00 Mostly Cloudy FEW065 BKN080 BKN110 69.8 53.6 57% 29.92 0.0
14 00:55 SW 8 10.00 Overcast OVC075 68 53.6 60% 29.92 0.0
14 00:35 SW 8 10.00 Partly Cloudy SCT075 68 53.6 60% 29.93 0.0
14 00:15 SW 8 10.00 Fair CLR 68 53.6 60% 29.93 0.0
13 23:55 SW 7 10.00 Fair CLR 68 55.4 64% 29.94 0.0
13 23:35 SW 8 10.00 Fair CLR 68 57.2 69% 29.94 0.0
13 23:15 SW 9 10.00 Fair CLR 68 57.2 69% 29.95 0.0
13 22:55 S 9 10.00 Fair CLR 68 57.2 69% 29.95 0.0
13 22:35 SW 7 10.00 Fair CLR 68 57.2 69% 29.96 0.0
13 22:15 SW 8 10.00 Fair CLR 69.8 57.2 64% 29.95 0.0
13 21:55 SW 7 10.00 Fair CLR 69.8 57.2 64% 29.95 0.0
13 21:35 SW 8 10.00 Fair CLR 69.8 57.2 64% 29.94 0.0
13 21:15 S 9 10.00 Fair CLR 71.6 57.2 61% 29.93 0.0
13 20:55 S 9 10.00 Fair CLR 73.4 57.2 57% 29.94 0.0
13 20:35 S 9 10.00 Fair CLR 73.4 57.2 57% 29.94 0.0
13 20:15 S 8 10.00 Fair CLR 75.2 57.2 54% 78 29.94 0.0
13 19:55 S 8 10.00 Fair CLR 77 57.2 51% 79 29.94 0.0
13 19:35 S 10 10.00 Fair CLR 77 57.2 51% 79 29.93 0.0
13 19:15 S 10 10.00 Fair CLR 78.8 55.4 45% 79 29.94 0.0
13 18:55 S 12 10.00 A Few Clouds FEW095 78.8 55.4 45% 79 29.94 0.0
13 18:35 S 15 10.00 Partly Cloudy FEW070 FEW085 SCT110 78.8 55.4 45% 79 29.94 0.0
13 18:15 SW 13 10.00 A Few Clouds FEW070 FEW110 78.8 55.4 45% 79 29.95 0.0
13 17:55 SW 10 10.00 Fair CLR 78.8 55.4 45% 79 29.96 0.0
13 17:35 SW 13 10.00 A Few Clouds FEW075 80.6 57.2 45% 81 29.96 0.0
13 17:15 SW 9 G 17 10.00 Partly Cloudy FEW065 SCT075 78.8 57.2 48% 80 29.96 0.0
13 16:55 SW 12 G 17 10.00 Mostly Cloudy FEW060 BKN075 78.8 57.2 48% 80 29.96 0.0
13 16:35 S 15 10.00 Partly Cloudy SCT060 78.8 57.2 48% 80 29.96 0.0
13 16:15 S 13 10.00 Partly Cloudy SCT060 80.6 57.2 45% 81 29.95 0.0
13 15:55 S 9 G 23 10.00 A Few Clouds FEW060 78.8 57.2 48% 80 29.95 0.0
13 15:35 S 13 G 22 10.00 Fair CLR 80.6 55.4 42% 81 29.96 0.0
13 15:15 SW 13 10.00 Fair CLR 80.6 55.4 42% 81 29.96 0.0
13 14:55 S 13 G 20 10.00 Fair CLR 80.6 53.6 39% 80 29.97 0.0
13 14:35 S 18 10.00 Fair CLR 78.8 53.6 42% 79 29.97 0.0
13 14:15 S 18 9.00 Fair CLR 78.8 53.6 42% 79 29.98 0.0
13 13:55 S 16 G 23 10.00 Fair CLR 78.8 55.4 45% 79 29.99 0.0
13 13:35 S 14 10.00 Fair CLR 78.8 57.2 48% 80 30 0.0
13 13:15 SW 16 G 23 10.00 Fair CLR 77 55.4 47% 79 30 0.0
13 12:55 S 13 10.00 Fair CLR 77 55.4 47% 79 30.01 0.0
13 12:35 S 17 10.00 Fair CLR 77 53.6 44% 78 30.01 0.0
13 12:15 SW 10 G 17 10.00 Fair CLR 77 55.4 47% 79 30.02 0.0
13 11:55 SW 14 G 20 10.00 Fair CLR 75.2 55.4 50% 78 30.02 0.0
13 11:35 S 12 G 18 10.00 Fair CLR 75.2 55.4 50% 78 30.02 0.0
13 11:15 SW 8 G 15 10.00 Fair CLR 75.2 57.2 54% 78 30.02 0.0
13 10:55 Vrbl 7 10.00 Fair CLR 73.4 55.4 53% 30.02 0.0
13 10:35 SW 9 G 15 10.00 Fair CLR 73.4 55.4 53% 30.02 0.0
13 10:15 SW 9 10.00 Fair CLR 73.4 55.4 53% 30.02 0.0
13 09:55 Vrbl 6 10.00 Fair CLR 71.6 57.2 61% 30.02 0.0
13 09:35 SW 8 10.00 Fair CLR 69.8 57.2 64% 30.03 0.0
13 09:15 Vrbl 5 10.00 Fair CLR 68 57.2 69% 30.04 0.0
13 08:55 S 3 10.00 Fair CLR 64.4 57.2 78% 30.04 0.0
13 08:35 S 5 10.00 Fair CLR 64.4 55.4 73% 30.04 0.0
13 08:15 S 7 10.00 Fair CLR 60.8 55.4 83% 30.04 0.0
13 07:55 S 6 10.00 Fair CLR 57.2 55.4 94% 30.03 0.0
13 07:35 SW 3 10.00 Fair CLR 55.4 55.4 100% 30.03 0.0
13 07:15 SW 5 10.00 Fair CLR 53.6 53.6 100% 30.03 0.0
13 06:55 W 5 10.00 Fair CLR 51.8 51.8 100% 30.03 0.0
13 06:35 SW 5 9.00 Fair CLR 51.8 50 94% 30.02 0.0
13 06:15 SW 6 10.00 Fair CLR 53.6 53.6 100% 30.02 0.0
13 05:55 S 8 10.00 Fair CLR 51.8 51.8 100% 30.02 0.0
13 05:35 S 8 10.00 Fair CLR 50 50 100% 47 30.03 0.0
13 05:15 SW 5 10.00 Fair CLR 50 50 100% 49 30.02 0.0
13 04:55 SW 3 10.00 Fair CLR 51.8 51.8 100% 30.03 0.0
13 04:35 Calm 10.00 Fair CLR 50 50 100% 30.02 0.0
13 04:15 Calm 10.00 Fair CLR 50 50 100% 30.02 0.0
13 03:55 Calm 10.00 Fair CLR 50 50 100% 30.03 0.0
13 03:35 Calm 10.00 Fair CLR 50 50 100% 30.02 0.0
13 03:15 S 5 10.00 Fair CLR 50 50 100% 49 30.02 0.0
13 02:55 Calm 10.00 Fair CLR 50 50 100% 30.01 0.0
13 02:35 S 3 10.00 Fair CLR 51.8 50 94% 30.02 0.0
13 01:55 S 3 10.00 Fair CLR 51.8 51.8 100% 30.03 0.0
13 01:35 Calm 10.00 Fair CLR 51.8 51.8 100% 30.02 0.0
13 01:15 SW 3 10.00 Fair CLR 53.6 50 88% 30.02 0.0
13 00:55 Calm 10.00 Fair CLR 55.4 50 82% 30.03 0.0
13 00:35 Calm 10.00 Fair CLR 55.4 50 82% 30.03 0.0
13 00:15 Calm 10.00 Fair CLR 57.2 48.2 72% 30.03 0.0
12 23:55 Calm 10.00 Fair CLR 55.4 48.2 77% 30.03 0.0
12 23:35 S 5 10.00 Fair CLR 57.2 48.2 72% 30.03 0.0
12 23:15 Calm 10.00 Fair CLR 59 48.2 68% 30.03 0.0
12 22:55 Calm 10.00 Fair CLR 59 48.2 68% 30.03 0.0
12 22:35 SW 5 10.00 Fair CLR 60.8 46.4 59% 30.03 0.0
12 22:15 Calm 10.00 Fair CLR 60.8 48.2 63% 30.03 0.0
12 21:55 Calm 10.00 Fair CLR 64.4 46.4 52% 30.04 0.0
12 21:35 Calm 10.00 Fair CLR 64.4 44.6 49% 30.03 0.0
12 21:15 Calm 10.00 Fair CLR 66.2 44.6 46% 30.02 0.0
12 20:55 Calm 10.00 Fair CLR 68 44.6 43% 30.02 0.0
12 20:35 Calm 10.00 Fair CLR 68 44.6 43% 30.02 0.0
12 20:15 N 3 10.00 Fair CLR 66.2 46.4 49% 30.01 0.0
12 19:55 Calm 10.00 Fair CLR 69.8 46.4 43% 30.01 0.0
12 19:35 Vrbl 5 10.00 Fair CLR 69.8 44.6 40% 30.01 0.0
12 19:15 W 7 10.00 Fair CLR 71.6 44.6 38% 30.01 0.0
12 18:55 NW 6 10.00 Fair CLR 71.6 46.4 41% 30.01 0.0
12 18:35 NW 6 G 13 10.00 Fair CLR 71.6 46.4 41% 30.01 0.0
12 18:15 Vrbl 3 G 12 10.00 Fair CLR 71.6 44.6 38% 30 0.0
12 17:55 Vrbl 7 G 13 10.00 Fair CLR 73.4 44.6 36% 30.01 0.0
12 17:35 Vrbl 7 10.00 Fair CLR 73.4 44.6 36% 30.01 0.0
12 17:15 NW 7 10.00 Fair CLR 73.4 46.4 38% 30.01 0.0
12 16:55 NW 8 10.00 Fair CLR 71.6 44.6 38% 30.02 0.0
12 16:35 W 6 G 13 10.00 Fair CLR 73.4 44.6 36% 30.02 0.0
12 16:15 NW 8 10.00 Fair CLR 73.4 46.4 38% 30.02 0.0
12 15:55 NW 9 10.00 Fair CLR 71.6 46.4 41% 30.02 0.0
12 15:35 Vrbl 6 G 12 10.00 Fair CLR 73.4 46.4 38% 30.02 0.0
12 15:15 W 8 G 15 10.00 Fair CLR 71.6 44.6 38% 30.03 0.0
12 14:55 Vrbl 5 G 15 10.00 Fair CLR 71.6 44.6 38% 30.03 0.0
12 14:35 Vrbl 6 10.00 Fair CLR 69.8 46.4 43% 30.03 0.0
12 14:15 NW 10 10.00 Fair CLR 69.8 46.4 43% 30.04 0.0
12 13:55 NW 8 10.00 Fair CLR 69.8 46.4 43% 30.04 0.0
12 13:35 NW 10 G 18 10.00 Fair CLR 68 46.4 46% 30.05 0.0
12 13:15 NW 8 G 16 10.00 Fair CLR 68 46.4 46% 30.05 0.0
12 12:55 Vrbl 3 10.00 Fair CLR 68 46.4 46% 30.05 0.0
12 12:15 SW 7 10.00 Fair CLR 66.2 48.2 52% 30.05 0.0
12 11:55 Vrbl 3 10.00 Fair CLR 66.2 50 56% 30.06 0.0
12 11:35 N 8 10.00 Fair CLR 64.4 50 60% 30.05 0.0
12 11:15 NW 7 10.00 A Few Clouds FEW031 FEW038 64.4 51.8 64% 30.06 0.0
Date Time (edt) Wind (mph) Vis. (mi.) Weather Sky Cond. Air Dwpt Max. Min. Relative Humidity Wind Chill (°F) Heat Index (°F) altimeter (in) sea level (mb) 1 hr 3 hr 6 hr
6 hour
Temperature (ºF) Pressure Precipitation (in)